カタログに戻る

STARLINK-1008

運用中通信VLEO
NORAD 44714·PAYLOAD·🇺🇸 United States

打ち上げ Nov 11, 2019 から Cape Canaveral Space Force Station

Loading…

次のパス (今後24時間)

TLE

最新Source: CelesTrak SupGP

元期: Sep 14, 2026, 12:46 UTC

1 44714C 19074B   26257.53243056  .00008144  00000+0  82283-4 0  2571
2 44714  53.1474 356.2185 0002196  73.6226  47.0433 15.64674083    16

AllMySatでSTARLINK-1008をリアルタイム追跡

Download on the App Store